Terug naar catalogus

STARLINK-34087

ActiefCommunicatieVLEO
NORAD 64023·PAYLOAD·🇺🇸 United States

Gelanceerd May 16, 2025 vanaf Vandenberg Space Force Base

Loading…

Volgende Passages (komende 24 uur)

TLE

VersSource: CelesTrak SupGP

Epoch: Sep 14, 2026, 21:43 UTC

1 64023C 25102B   26257.90534722 -.00032411  00000+0 -11277-2 0  2578
2 64023  70.0010 355.6944 0003381 273.4394 207.9704 15.29586954    12

Volg STARLINK-34087 in realtime met AllMySat

Download on the App Store